Location: Kaseke
(18.0171°S, 31.0526°E)
Time: 12:52:21
(UTC+00:00)

In-Cosmos 22 - Pass Details

Date: 14 July 2020
Orbit: 785 x 876 km, 81.2° (Epoch: 07 August)

Event Time Altitude Azimuth Distance (km) Brightness Sun altitude
Rises 03:32:47 0° 343° (NNW) 3,409 7.4 -13.0°
Reaches altitude 10° 03:35:17 10° 337° (NNW) 2,467 6.6 -12.5°
Maximum altitude 03:40:40 50° 263° (W) 1,064 4.4 -11.2°
Drops below altitude 10° 03:46:00 10° 188° (S) 2,431 6.3 -10.1°
Sets 03:48:28 0° 182° (S) 3,355 7.1 -9.5°
